This is the latest recevied weather packets stored in our database for station/object HG8GL-14. If no packets are shown the sender has not sent any weather packets the latest 10 day(s).
| Time | Temp. | Humidity | Pressure | Rain* | Wind** | Luminosity | Snow |
|---|---|---|---|---|---|---|---|
| 1787927918 | 130° F | 4% | 761 mmHg | - | - | - | - |
| 1787927314 | 136° F | 3% | 762.4 mmHg | - | - | - | - |
| 1787926711 | 140° F | 2% | 761.8 mmHg | - | - | - | - |
| 1787926107 | 139° F | 2% | 762.2 mmHg | - | - | - | - |
| 1787925504 | 138° F | 2% | 761.7 mmHg | - | - | - | - |
| 1787924900 | 135° F | 3% | 762.7 mmHg | - | - | - | - |
| 1787924297 | 143° F | 1% | 762 mmHg | - | - | - | - |
| 1787923693 | 143° F | 100% | 763 mmHg | - | - | - | - |
| 1787923090 | 136° F | 3% | 763.9 mmHg | - | - | - | - |
| 1787922487 | 134° F | 3% | 762 mmHg | - | - | - | - |
| 1787921883 | 144° F | 1% | 762.1 mmHg | - | - | - | - |
| 1787921279 | 138° F | 1% | 764.1 mmHg | - | - | - | - |
| 1787918865 | 148° F | 100% | 763.5 mmHg | - | - | - | - |
| 1787918262 | 147° F | 100% | 763.6 mmHg | - | - | - | - |
| 1787917659 | 140° F | 2% | 764.5 mmHg | - | - | - | - |
| 1787917055 | 137° F | 3% | 763.3 mmHg | - | - | - | - |
| 1787916451 | 130° F | 3% | 764.3 mmHg | - | - | - | - |
| 1787915848 | 127° F | 5% | 764.2 mmHg | - | - | - | - |
| 1787915244 | 130° F | 4% | 764.5 mmHg | - | - | - | - |
| 1787914641 | 131° F | 4% | 764.6 mmHg | - | - | - | - |
| 1787914037 | 119° F | 7% | 764.1 mmHg | - | - | - | - |
| 1787911624 | 91° F | 21% | 765.1 mmHg | - | - | - | - |
| 1787911020 | 90° F | 23% | 764.9 mmHg | - | - | - | - |
| 1787908002 | 87° F | 25% | 765.4 mmHg | - | - | - | - |
| 1787906795 | 88° F | 24% | 764.9 mmHg | - | - | - | - |
* Rain since midnight (hover to see other rain measurements)
** Current wind speed in m/s (hover to see current wind gust speed)